2007 VD191
ephemeris date magn radius delta ra dec elong phase
Today20 Oct 202528.01.383 AU1.922 AU10h46m-01°58'43.5°29.7°
2007 VD191 - 2025-10-20
astro.vanbuitenen.nl


 
-1 year
-1 month
-1 day
Now
+1 day
+1 month
+1 year

The interactive orbit chart above shows the body's path through the solar system and its position at the given date. Green and blue lines are shown perpendicular to the ecliptic plane: Green if the path is above the ecliptic plane, blue if it is below. (Left-click and drag to rotate the view; Right-click and drag to move the view; Use scroll wheel to zoom in our out.)

The orbital elements of 2007 VD191 are:

            e (Eccentricity)                : 0.2455891
            a (Semimajor axis)              : 1.1117855
            i (Inclination)                 : 12.64704
            Ω (Longitude of ascending node) : 223.25302
            ω (Argument of perihelion)      : 95.92780
            M (Mean anomaly)                : 29.88717
            Epoch                           : 2025 May 05

            L (Longitude of perihelion)     : 139.32713
            B (Latitude of perihelion)      : 12.57830
            P (Orbital period in years)     : 1.17            
        

The light curve chart below shows the estimated development of the minor planet's magnitude.


The all-sky chart below shows the path of the minor planet over the same period as the light curve. The current position is marked yellow.





The following chart shows the path of the minor planet in the next few days. The field of view is optimized for (~10x50) binoculars and finderscopes.




Ephemerides:
Date       Time       RA (2000)    DEC (2000)    delta   radius  elong  phase   PA    magn
2025-10-20 00:00 UT   10 46 08.3   -01 58 13     1.922    1.383   43.5   29.7   283   28.0 
2025-10-20 23:44 UT   10 48 38.2   -02 15 26     1.917    1.383   43.8   29.9   283   28.0 
2025-10-21 00:00 UT   10 48 39.9   -02 15 37     1.917    1.383   43.8   29.9   283   28.0 
2025-10-22 00:00 UT   10 51 11.6   -02 33 03     1.912    1.383   44.1   30.1   283   28.0 
2025-10-23 00:00 UT   10 53 43.2   -02 50 30     1.907    1.384   44.4   30.2   283   28.0 
2025-10-24 00:00 UT   10 56 14.8   -03 07 59     1.901    1.384   44.7   30.4   283   28.0 
2025-10-25 00:00 UT   10 58 46.4   -03 25 28     1.896    1.384   45.0   30.5   284   28.0 
2025-10-26 00:00 UT   11 01 18.0   -03 42 59     1.890    1.384   45.3   30.7   284   28.0 
2025-10-27 00:00 UT   11 03 49.7   -04 00 31     1.885    1.385   45.6   30.8   284   28.0 
2025-10-28 00:00 UT   11 06 21.4   -04 18 04     1.879    1.385   45.9   31.0   284   28.0 
2025-10-29 00:00 UT   11 08 53.2   -04 35 37     1.873    1.385   46.1   31.2   284   28.0 
2025-10-30 00:00 UT   11 11 25.1   -04 53 12     1.868    1.385   46.4   31.3   284   28.0 
2025-10-31 00:00 UT   11 13 57.0   -05 10 47     1.862    1.385   46.7   31.5   284   28.0 
2025-11-01 00:00 UT   11 16 29.1   -05 28 22     1.856    1.385   47.0   31.6   285   28.0 


    Terminology:
            
    delta:  distance between minor planet and earth in AU
    radius: distance between minor planet and sun in AU
    magn:   magnitude (brightness) estimate    
    ra:     right ascension in hours (24h = 360deg)
    dec:    declination in degrees
    elong:  elongation in degrees (angle sun-earth-minor planet)    
    phase:  phase angle in degrees (angle sun-minor planet-earth)        
    AU:     Astronomical Unit (mean distance between earth and sun: 149597870.7 km
    

Orbital elements provided by the MPC (Minor Planet Center).
Calculations by a modified version of AAPlus, a C# implementation of the AA+ project by PJ Naughter from the algorithms presented in the book "Astronomical Algorithms" by Jean Meeus.
NGC2000 dso catalog and star labels from VizieR as provided by the Strasbourg astronomical Data Center.
Tycho2 catalog from the ESO archive.